Kekaha, HI

1:57 PM HST on August 30, 2016 (GMT -1000)
Barking Sands PMRF

Weather History for PHBK - March, 2014

Change the Weather History Date:

Wednesday, March 12, 2014

  Actual Average Record
Temperature  
Mean Temperature 72 °F -  
Max Temperature 78 °F 81 °F 85 °F (1961)
Min Temperature 66 °F 62 °F 57 °F (1950)
Cooling Degree Days 7    
Growing Degree Days 22 (Base 50)    
Moisture  
Dew Point 65 °F    
Average Humidity 72    
Maximum Humidity 84    
Minimum Humidity 66    
Precipitation  
Precipitation 0.00 in - - ()
Sea Level Pressure  
Sea Level Pressure 30.06 in    
Wind  
Wind Speed 4 mph (ESE)    
Max Wind Speed 10 mph    
Max Gust Speed -    
Visibility 10 miles    
Events      
Averages and records for this station are not official NWS values.
T = Trace of Precipitation, MM = Missing Value Source: NWS Daily Summary

Daily Weather History Graph

Daily Weather History Graph

Search for Another Location

Airport or City:

Trip Planner

Search our weather history database for the weather conditions in past years. The results will help you decide how hot, cold, wet, or windy it might be!

Date:

Astronomy

Mar. 12, 2014 Rise Set
Actual Time 6:50 AM HST 6:47 PM HST
Civil Twilight 6:28 AM HST 7:09 PM HST
Nautical Twilight 6:02 AM HST 7:35 PM HST
Astronomical Twilight 5:36 AM HST 8:01 PM HST
Moon 3:47 PM HST (3/12) 4:08 AM HST (3/12)
Length of Visible Light 12h 41m
Length of Day
11h 57m
Waxing Gibbous, 87% of the Moon is Illuminated
Mar 12
Waxing Gibbous
Mar 16
Full
Mar 23
Last Quarter
Mar 30
New
Apr 6
First Quarter

Hourly Weather History & Observations

Time (HST) Temp. Dew Point Humidity Pressure Visibility Wind Dir Wind Speed Gust Speed Precip Events Conditions
12:56 AM - - N/A% 30.06 in 9.0 mi East 3.5 mph - 0.00 in   Unknown
1:56 AM - - N/A% 30.04 in 9.0 mi Calm Calm - 0.00 in   Clear
2:56 AM - - N/A% 30.03 in 9.0 mi ENE 5.8 mph - 0.00 in   Unknown
3:56 AM - - N/A% 30.03 in 9.0 mi ENE 3.5 mph - 0.00 in   Unknown
4:56 AM - - N/A% 30.03 in 9.0 mi ENE 5.8 mph - 0.00 in   Unknown
5:56 AM - - N/A% 30.05 in 9.0 mi ENE 4.6 mph - 0.00 in   Unknown
6:56 AM - - N/A% 30.07 in 9.0 mi East 3.5 mph - 0.00 in   Clear
7:56 AM - - N/A% 30.08 in 10.0 mi East 4.6 mph - 0.00 in   Clear
8:56 AM 75.0 °F 66.0 °F 73% 30.09 in 10.0 mi Calm Calm - 0.00 in   Clear
9:56 AM 75.0 °F 66.9 °F 76% 30.11 in 10.0 mi WSW 5.8 mph - N/A   Clear
10:56 AM 75.9 °F 66.9 °F 74% 30.11 in 10.0 mi West 5.8 mph - N/A   Clear
11:56 AM 77.0 °F 66.9 °F 71% 30.09 in 10.0 mi West 6.9 mph - N/A   Clear
12:56 PM 78.1 °F 66.9 °F 68% 30.06 in 10.0 mi SW 9.2 mph - N/A   Clear
1:56 PM 78.1 °F 66.0 °F 66% 30.03 in 10.0 mi SSW 9.2 mph - N/A   Clear
2:56 PM 78.1 °F 66.0 °F 66% 30.01 in 10.0 mi WSW 5.8 mph - N/A   Partly Cloudy
3:56 PM 77.0 °F 66.0 °F 69% 30.01 in 10.0 mi SW 5.8 mph - N/A   Clear
4:56 PM 77.0 °F 66.9 °F 71% 30.01 in 10.0 mi SSW 10.4 mph - N/A   Partly Cloudy
5:56 PM 77.0 °F 66.0 °F 69% 30.03 in 10.0 mi SW 10.4 mph - N/A   Mostly Cloudy
6:56 PM 73.9 °F 66.0 °F 76% 30.04 in 10.0 mi SE 3.5 mph - N/A   Clear
7:56 PM 71.1 °F 66.0 °F 84% 30.06 in 10.0 mi East 4.6 mph - N/A   Clear
8:56 PM - - N/A% 30.09 in 9.0 mi NNE 4.6 mph - 0.00 in   Unknown
9:56 PM 66.9 °F 57.9 °F 73% 30.09 in 10.0 mi East 4.6 mph - 0.00 in   Clear
10:56 PM 66.9 °F 57.9 °F 73% 30.11 in 10.0 mi Calm Calm - N/A   Clear
11:56 PM 66.0 °F 59.0 °F 78% 30.10 in 10.0 mi East 4.6 mph - N/A   Clear